Date,TemperatureHighF,TemperatureAvgF,TemperatureLowF,DewpointHighF,DewpointAvgF,DewpointLowF,HumidityHigh,HumidityAvg,HumidityLow,PressureMaxIn,PressureMinIn,WindSpeedMaxMPH,WindSpeedAvgMPH,GustSpeedMaxMPH,PrecipitationSumIn
2013-12-1,34,25,16,25,19,13,88,81,68,30.22,29.95,0,0,0,0.00
2013-12-2,36,32,25,32,28,21,92,87,79,29.94,29.59,0,0,0,0.08
2013-12-3,34,33,31,32,31,29,93,93,92,29.81,29.59,0,0,0,0.06
2013-12-4,31,26,12,29,24,7,93,90,81,29.79,29.49,0,0,0,0.00
2013-12-5,11,4,-4,7,-2,-9,81,76,69,30.40,29.71,0,0,0,0.00
2013-12-6,3,-5,-12,-6,-11,-17,80,75,66,30.73,30.41,0,0,0,0.00
2013-12-7,-1,-8,-16,-10,-15,-21,79,74,62,30.82,30.67,0,0,0,0.00
2013-12-8,11,4,-9,6,-1,-14,85,81,78,30.66,30.11,0,0,0,0.00
2013-12-9,8,-2,-7,4,-8,-14,85,76,67,30.17,29.94,0,0,0,0.00
2013-12-10,7,4,-2,3,-2,-7,84,77,66,30.37,29.84,0,0,1,0.00
2013-12-11,0,-6,-13,-7,-13,-19,77,71,62,30.65,30.39,0,0,0,0.00
2013-12-12,17,9,0,9,3,-6,84,75,64,30.39,30.21,0,0,0,0.00
2013-12-13,14,11,8,10,6,3,85,77,70,30.36,30.19,0,0,0,0.00
2013-12-14,14,8,-2,6,2,-9,82,78,71,30.35,30.15,0,0,0,0.00
2013-12-15,2,-1,-4,-8,-9,-11,76,69,57,30.24,30.18,0,0,0,0.00
2013-12-16,23,9,0,20,3,-9,87,78,67,30.20,29.95,0,0,0,0.00
2013-12-17,31,21,4,27,15,-1,86,77,62,30.14,29.92,0,0,0,0.00
2013-12-18,32,22,2,24,16,-2,86,78,65,30.10,29.68,0,0,0,0.07
2013-12-19,24,16,13,19,10,6,83,76,70,30.12,29.84,0,0,0,0.00
2013-12-20,17,14,9,11,9,5,84,81,76,30.09,29.90,0,0,0,0.00
2013-12-21,20,17,14,13,11,10,83,79,74,30.05,29.91,0,0,0,0.00
2013-12-22,16,12,4,11,8,0,83,81,77,30.30,30.00,0,0,0,0.00
2013-12-23,4,-3,-13,-1,-10,-19,80,73,65,30.60,30.30,0,0,0,0.00
2013-12-24,10,-3,-18,4,-10,-24,83,73,54,30.57,30.21,0,0,0,0.00
2013-12-25,25,15,9,21,11,5,87,82,74,30.22,30.10,0,0,0,0.00
2013-12-26,25,17,8,20,13,4,87,84,81,30.21,30.12,0,0,0,0.00
2013-12-27,38,27,7,30,23,3,90,84,71,30.20,29.91,0,0,0,0.22
2013-12-28,43,30,15,31,25,9,92,84,63,30.06,29.66,0,0,0,0.33
2013-12-29,15,-4,-17,9,-12,-23,77,66,54,30.38,30.07,0,0,0,0.00
2013-12-30,2,-8,-19,-5,-13,-24,80,76,74,30.38,30.28,0,0,0,0.00
2013-12-31,-4,-10,-16,-10,-16,-21,79,75,68,30.53,30.30,0,0,0,0.00